#datint,netname,site,siteID,timestamp,IntT,BattV,AirT2,AirT,AirT_Avg,AirT_Max,AirT_Min,RH_Avg,RH_Max,RH_Min,EA_Avg,Td_Avg,Td_Max,Td_Min,WindS_Smp,WindS_Avg,WindD_Avg,WindD_SD,WindS_Max,ETo,ETr,SoilT4,SoilT8,SoilVWC8,SolarW_Avg,wetstate_Avg,wetT_Avg,Precip_accum,Precip_WPG,Precip_TB
15min,AgWx,beryljct,423,15FEB2018:00:00:00,36.5,12.86,37.9,37.8,36.9,37.9,36.3,82,83,82,0.642,32.1,33.3,31.3,9.51,10.4,164,28,17.8,0.00004,0.00006,37.9,40.8,21,0,0,36.5,12.13,0.00,0.00
15min,AgWx,beryljct,423,15FEB2018:00:15:00,36.5,12.84,38.7,38.5,37.9,38.5,37.4,83,83,83,0.658,33.3,33.9,32.7,15.15,11.3,172,25,15.4,0.00005,0.00006,37.8,40.7,21,0,0,37.3,12.13,0.00,0.00
15min,AgWx,beryljct,423,15FEB2018:00:30:00,36.6,12.84,38.1,38.3,38.4,38.9,37.8,84,84,83,0.653,33.9,34.4,33.3,9.03,10.8,185,27,13.9,0.00004,0.00006,37.8,40.7,21,0,0,37.6,12.13,0.00,0.00
15min,AgWx,beryljct,423,15FEB2018:00:45:00,36.6,12.84,38.6,38.6,38.1,38.6,37.9,83,83,83,0.663,33.6,34.1,33.3,9.25,8.9,196,24,11.1,0.00002,0.00004,37.8,40.7,21,0,0,37.6,12.13,0.00,0.00
15min,AgWx,beryljct,423,15FEB2018:01:00:00,37.0,12.83,39.0,39.2,39.1,39.2,38.6,83,84,83,0.678,34.5,34.7,34.0,9.01,10.5,211,24,13.6,0.00004,0.00006,37.7,40.6,21,0,0,39.2,12.13,0.00,0.00
15min,AgWx,beryljct,423,15FEB2018:01:15:00,37.2,12.82,37.1,37.2,38.0,39.2,36.9,83,83,83,0.623,33.3,34.5,32.1,9.08,12.5,233,20,18.5,0.00006,0.00007,37.7,40.6,21,0,51,37.9,12.14,0.01,0.00
15min,AgWx,beryljct,423,15FEB2018:01:30:00,37.1,12.82,37.0,37.1,37.1,37.8,36.6,83,83,83,0.619,32.4,33.2,31.8,11.66,14.5,226,24,20.3,0.00007,0.00008,37.7,40.5,21,0,66,37.1,12.15,0.02,0.03
15min,AgWx,beryljct,423,15FEB2018:01:45:00,37.0,12.81,36.7,36.8,36.7,37.1,36.3,83,83,83,0.614,31.9,32.3,31.5,6.752,8.4,211,32,15.8,0.00002,0.00004,37.7,40.5,21,0,47,36.4,12.17,0.01,0.03
15min,AgWx,beryljct,423,15FEB2018:02:00:00,36.5,12.81,36.3,36.6,36.8,37.5,36.3,83,84,83,0.611,32.2,32.9,31.6,6.423,6.9,178,21,11.0,-0.00000,0.00001,37.6,32.0,0,0,0,35.5,12.16,0.00,0.00
15min,AgWx,beryljct,423,15FEB2018:02:15:00,35.9,12.79,36.0,36.3,35.9,36.7,35.0,83,83,83,0.602,31.2,32.0,30.4,4.209,4.5,185,21,8.4,-0.00004,-0.00004,37.6,40.4,21,0,0,35.4,12.16,0.00,0.00
15min,AgWx,beryljct,423,15FEB2018:02:30:00,35.5,12.79,36.9,36.9,36.8,37.5,35.7,83,84,83,0.619,32.2,32.9,31.1,6.84,5.8,206,24,8.8,-0.00002,-0.00001,37.5,40.3,21,0,0,35.8,12.16,0.00,0.00
15min,AgWx,beryljct,423,15FEB2018:02:45:00,35.3,12.77,36.5,36.4,37.2,37.5,36.4,84,84,83,0.609,32.7,33.0,31.9,8.77,6.8,201,23,9.1,-0.00001,0.00001,37.5,32.0,0,0,0,35.8,12.16,0.00,0.00
15min,AgWx,beryljct,423,15FEB2018:03:00:00,35.1,12.76,36.2,36.3,36.7,37.5,35.8,83,84,83,0.603,32.2,33.0,31.2,6.314,7.9,172,22,12.2,0.00001,0.00002,37.4,40.2,21,0,0,35.5,12.17,0.00,0.00
15min,AgWx,beryljct,423,15FEB2018:03:15:00,34.8,12.76,35.9,35.8,35.8,36.4,35.2,83,83,83,0.590,31.2,31.8,30.7,6.62,6.4,178,21,9.7,-0.00001,0.00000,37.1,40.2,21,0,0,35.6,12.16,0.00,0.00
15min,AgWx,beryljct,423,15FEB2018:03:30:00,34.8,12.76,37.7,37.7,37.3,37.8,35.8,84,84,83,0.640,32.7,33.3,31.2,9.54,9.5,184,25,12.6,0.00003,0.00004,37.1,40.2,21,0,0,36.3,12.16,0.00,0.00
15min,AgWx,beryljct,423,15FEB2018:03:45:00,35.0,12.76,37.6,37.8,37.8,38.0,37.2,84,84,83,0.640,33.2,33.5,32.8,9.12,9.9,198,28,13.9,0.00003,0.00005,36.9,40.2,21,0,0,36.9,12.16,0.00,0.00
15min,AgWx,beryljct,423,15FEB2018:04:00:00,35.1,12.74,37.6,37.7,37.8,38.1,37.4,83,84,82,0.633,33.0,33.4,32.7,8.62,8.9,209,21,11.1,0.00003,0.00004,36.8,40.2,21,0,0,37.2,12.16,0.00,0.00
15min,AgWx,beryljct,423,15FEB2018:04:15:00,35.2,12.74,37.8,37.7,37.7,38.0,37.4,81,83,80,0.614,32.5,32.9,32.2,7.717,8.3,213,18,10.2,0.00003,0.00005,36.7,40.1,21,0,0,37.0,12.16,0.00,0.00
15min,AgWx,beryljct,423,15FEB2018:04:30:00,35.3,12.74,37.1,37.1,37.4,38.0,36.9,82,84,80,0.625,32.4,32.7,32.1,7.717,7.8,221,20,10.9,0.00002,0.00003,36.5,40.0,21,0,0,36.9,12.16,0.00,0.00
15min,AgWx,beryljct,423,15FEB2018:04:45:00,35.7,12.74,38.1,38.0,37.7,38.2,37.1,83,84,82,0.634,33.0,33.3,32.6,7.76,7.9,216,18,9.7,0.00001,0.00003,36.5,40.0,21,0,0,38.0,12.16,0.00,0.00
15min,AgWx,beryljct,423,15FEB2018:05:00:00,36.1,12.73,37.7,37.7,38.0,38.3,37.7,81,82,80,0.626,32.7,33.0,32.5,10.04,8.4,195,22,10.3,0.00003,0.00005,36.3,40.0,21,0,0,37.9,12.16,0.00,0.00
15min,AgWx,beryljct,423,15FEB2018:05:15:00,36.2,12.72,36.7,36.7,37.1,37.7,36.6,84,84,82,0.616,32.6,32.8,32.1,6.774,8.2,184,21,10.2,0.00001,0.00003,36.3,39.9,21,0,0,36.5,12.16,0.00,0.00
15min,AgWx,beryljct,423,15FEB2018:05:30:00,35.7,12.71,36.1,36.2,36.1,36.7,35.5,84,84,83,0.604,31.6,32.2,30.9,7.87,7.1,188,19,8.8,-0.00000,0.00001,36.3,39.9,21,0,0,35.3,12.16,0.00,0.00
15min,AgWx,beryljct,423,15FEB2018:05:45:00,35.4,12.72,36.5,36.4,36.1,36.4,35.8,84,84,83,0.610,31.6,32.0,31.3,8.35,8.0,182,23,9.6,0.00001,0.00002,36.2,39.8,21,0,0,35.9,12.16,0.00,0.00
15min,AgWx,beryljct,423,15FEB2018:06:00:00,35.5,12.72,36.6,36.7,36.5,36.8,36.2,84,84,84,0.617,32.0,32.3,31.7,6.905,8.7,179,22,10.6,0.00002,0.00003,36.2,39.8,21,0,0,36.7,12.16,0.00,0.00
15min,AgWx,beryljct,423,15FEB2018:06:15:00,35.8,12.71,34.1,34.3,36.3,37.4,34.2,83,84,83,0.554,31.8,32.8,29.6,13.2,10.6,234,46,16.1,0.00004,0.00005,36.2,39.7,21,0,32,37.1,12.16,0.00,0.00
15min,AgWx,beryljct,423,15FEB2018:06:30:00,35.5,12.69,33.9,33.8,33.8,34.3,33.5,82,83,82,0.538,29.0,29.6,28.6,8.75,10.8,254,22,14.2,0.00004,0.00006,36.2,39.7,21,0,99,35.5,12.18,0.02,0.03
15min,AgWx,beryljct,423,15FEB2018:06:45:00,35.3,12.66,34.1,34.1,34.0,34.4,33.3,82,82,82,0.547,29.2,29.5,28.4,12.65,8.7,245,25,12.7,0.00021,0.00036,36.1,39.6,21,0,20,36.0,12.18,0.00,0.02
15min,AgWx,beryljct,423,15FEB2018:07:00:00,35.1,12.67,33.2,33.0,33.2,34.1,32.8,82,83,82,0.525,28.4,29.3,28.1,5.152,7.8,299,14,12.3,0.00019,0.00033,36.0,39.6,21,0,28,35.3,12.18,0.00,0.00
15min,AgWx,beryljct,423,15FEB2018:07:15:00,34.6,12.66,32.5,32.5,32.8,33.1,32.4,83,83,82,0.515,28.1,28.4,27.7,3.003,3.2,296,7.4,6.2,0.00010,0.00017,36.0,39.6,21,0,0,35.3,12.18,0.00,0.00
15min,AgWx,beryljct,423,15FEB2018:07:30:00,34.1,12.65,32.7,32.4,32.4,32.6,32.3,83,83,82,0.515,27.7,27.9,27.5,3.661,3.3,285,9.6,4.7,0.00011,0.00018,36.0,39.5,21,3,0,35.3,12.18,0.00,0.00
15min,AgWx,beryljct,423,15FEB2018:07:45:00,33.6,12.67,32.4,32.2,32.5,32.7,31.5,83,84,83,0.513,28.0,28.2,27.0,2.455,3.4,287,9.5,5.7,0.00014,0.00021,35.9,39.5,21,13,0,35.7,12.18,0.00,0.00
15min,AgWx,beryljct,423,15FEB2018:08:00:00,33.2,12.72,32.3,32.3,32.3,32.4,32.1,83,83,83,0.515,27.8,28.0,27.6,1.469,1.1,287,12,2.5,0.00020,0.00024,35.9,39.5,21,39,0,36.1,12.18,0.00,0.00
15min,AgWx,beryljct,423,15FEB2018:08:15:00,33.2,12.77,33.2,33.2,32.8,33.3,32.0,83,84,81,0.521,28.3,28.8,27.5,3.529,3.0,289,28,4.4,0.00034,0.00042,35.8,39.5,21,65,0,35.5,12.18,0.00,0.00
15min,AgWx,beryljct,423,15FEB2018:08:30:00,33.2,12.86,33.4,33.3,33.3,33.8,32.9,80,83,76,0.510,27.9,28.4,27.0,3.266,3.2,294,18,5.1,0.00043,0.00053,35.8,39.4,21,84,0,35.6,12.18,0.00,0.00
15min,AgWx,beryljct,423,15FEB2018:08:45:00,33.6,13.09,33.4,33.6,33.5,33.9,33.2,79,81,78,0.519,27.9,28.5,27.2,2.762,3.0,310,11,4.0,0.00052,0.00063,35.8,39.3,21,114,0,35.6,12.18,0.00,0.00
15min,AgWx,beryljct,423,15FEB2018:09:00:00,34.4,13.62,34.2,34.2,33.9,34.2,33.6,77,79,75,0.509,27.5,28.1,26.6,4.362,3.0,325,22,4.5,0.00066,0.00078,35.7,39.3,21,155,0,35.7,12.18,0.00,0.00
15min,AgWx,beryljct,423,15FEB2018:09:15:00,37.3,14.53,35.2,35.3,35.0,35.5,34.2,72,79,69,0.492,27.0,28.9,25.7,5.437,5.1,332,23,8.1,0.00114,0.00136,35.8,39.2,21,304,0,38.8,12.18,0.00,0.00
15min,AgWx,beryljct,423,15FEB2018:09:30:00,40.7,14.75,36.4,36.9,36.1,36.9,35.2,71,74,67,0.508,27.8,28.7,26.5,4.626,5.1,312,19,6.6,0.00130,0.00154,35.8,39.2,21,341,0,40.3,12.18,0.00,0.00
15min,AgWx,beryljct,423,15FEB2018:09:45:00,43.8,14.69,37.6,38.0,37.3,38.1,36.6,65,70,61,0.505,26.8,28.4,24.5,4.954,5.3,317,16,7.8,0.00152,0.00182,36.0,39.2,21,380,0,41.9,12.18,0.00,0.00
15min,AgWx,beryljct,423,15FEB2018:10:00:00,46.4,14.63,38.2,37.7,37.6,38.1,37.3,57,65,50,0.384,23.9,27.5,20.8,3.595,4.1,11,33,7.0,0.00173,0.00205,36.2,39.1,21,420,0,43.9,12.18,0.00,0.00
15min,AgWx,beryljct,423,15FEB2018:10:15:00,49.4,14.6,38.4,38.7,38.5,39.5,37.5,52,57,48,0.450,22.3,25.2,20.0,3.376,2.1,23,88,5.0,0.00194,0.00220,36.6,39.1,21,461,0,48.3,12.18,0.00,0.00
15min,AgWx,beryljct,423,15FEB2018:10:30:00,51.3,14.55,39.6,39.7,39.0,39.9,38.6,55,60,52,0.430,24.2,26.3,22.7,2.894,2.9,139,36,5.5,0.00211,0.00242,37.0,39.0,21,502,0,48.7,12.18,0.00,0.00
15min,AgWx,beryljct,423,15FEB2018:10:45:00,53.3,14.54,39.6,40.0,40.1,41.0,39.6,48,54,40,0.339,21.9,24.6,17.8,3.113,2.5,349,81,8.0,0.00232,0.00265,37.6,39.0,21,536,0,50.9,12.18,0.00,0.00
15min,AgWx,beryljct,423,15FEB2018:11:00:00,54.5,14.51,40.5,41.0,40.3,41.2,39.7,43,50,38,0.333,19.5,23.3,17.2,6.314,5.2,328,28,11.5,0.00249,0.00300,38.2,39.0,21,566,0,48.6,12.18,0.00,0.00
15min,AgWx,beryljct,423,15FEB2018:11:15:00,54.8,14.44,40.6,40.8,41.0,41.7,40.0,40,47,36,0.338,18.6,22.5,15.2,4.823,7.0,323,30,11.5,0.00266,0.00331,38.8,39.0,21,594,0,47.8,12.18,0.00,0.00
15min,AgWx,beryljct,423,15FEB2018:11:30:00,54.9,14.46,41.6,42.2,41.3,42.2,40.6,39,44,34,0.344,18.1,21.6,15.0,7.695,6.1,321,36,10.1,0.00277,0.00339,39.6,39.0,21,619,0,49.0,12.18,0.00,0.00
15min,AgWx,beryljct,423,15FEB2018:11:45:00,54.5,14.1,42.2,42.7,42.1,42.7,41.5,38,43,33,0.348,18.3,21.2,14.7,13.13,12.1,304,23,17.3,0.00293,0.00385,40.2,39.0,21,641,0,47.7,12.18,0.00,0.00
15min,AgWx,beryljct,423,15FEB2018:12:00:00,53.9,14.06,42.6,43.3,42.9,43.7,41.9,36,41,31,0.306,17.5,21.3,13.9,15.83,12.6,301,19,21.0,0.00307,0.00407,40.7,39.0,21,658,0,47.9,12.18,0.00,0.00
15min,AgWx,beryljct,423,15FEB2018:12:15:00,53.3,14.06,43.2,43.6,42.8,43.8,41.9,30,35,25,0.277,13.7,17.3,8.8,9.78,14.2,314,25,21.8,0.00322,0.00435,41.2,39.0,21,673,0,47.7,12.17,0.00,0.00
15min,AgWx,beryljct,423,15FEB2018:12:30:00,52.9,14.06,43.2,43.8,43.6,44.4,42.7,31,37,26,0.290,14.7,19.7,10.4,9.27,10.7,331,36,16.9,0.00325,0.00425,41.6,39.1,21,683,0,49.4,12.17,0.00,0.00
15min,AgWx,beryljct,423,15FEB2018:12:45:00,52.7,14.04,43.3,43.4,43.2,43.9,42.4,32,37,27,0.318,15.3,19.3,11.1,14.67,11.0,330,22,15.2,0.00323,0.00422,42.0,39.1,21,688,0,49.6,12.17,0.00,0.00
15min,AgWx,beryljct,423,15FEB2018:13:00:00,52.9,14.08,43.5,43.8,43.4,44.2,42.7,31,36,25,0.261,15.0,18.5,10.0,5.459,10.0,332,21,15.0,0.00330,0.00426,42.5,39.1,21,704,0,50.7,12.17,0.00,0.00
15min,AgWx,beryljct,423,15FEB2018:13:15:00,53.2,14.06,42.7,42.7,43.5,44.8,42.5,32,38,27,0.298,15.8,20.2,12.1,7.892,7.7,359,48,15.9,0.00318,0.00400,42.7,39.2,21,681,0,51.7,12.17,0.00,0.00
15min,AgWx,beryljct,423,15FEB2018:13:30:00,53.9,14.06,43.8,43.4,42.9,44.0,42.3,31,35,26,0.272,14.2,17.5,11.1,4.165,5.4,19,44,10.4,0.00309,0.00376,43.2,39.3,21,671,0,52.2,12.17,0.00,0.00
15min,AgWx,beryljct,423,15FEB2018:13:45:00,54.9,14,44.9,45.1,44.6,46.3,43.3,29,41,23,0.376,14.6,22.2,9.7,3.003,8.7,340,31,15.1,0.00331,0.00424,43.6,39.4,21,680,0,51.8,12.17,0.00,0.00
15min,AgWx,beryljct,423,15FEB2018:14:00:00,55.4,14.01,44.5,44.6,44.5,45.5,43.5,26,38,19,0.243,11.1,21.0,5.0,7.914,8.1,7.5,24,14.8,0.00322,0.00413,44.0,39.5,21,653,0,51.2,12.17,0.00,0.00
15min,AgWx,beryljct,423,15FEB2018:14:15:00,55.6,13.96,44.2,44.2,44.6,45.9,43.9,21,26,16,0.194,6.6,12.7,0.2,7.585,8.8,351,21,14.9,0.00327,0.00430,44.4,39.6,22,644,0,50.5,12.17,0.00,0.00
15min,AgWx,beryljct,423,15FEB2018:14:30:00,55.9,13.96,45.0,46.0,45.3,46.1,44.3,19,24,16,0.204,5.7,11.0,1.0,8.4,8.6,323,26,14.1,0.00324,0.00428,44.6,39.7,21,623,0,50.6,12.17,0.00,0.00
15min,AgWx,beryljct,423,15FEB2018:14:45:00,56.0,13.95,44.8,45.1,45.1,45.9,44.6,20,25,15,0.181,6.3,11.1,0.2,18.11,10.9,338,18,19.4,0.00320,0.00436,45.0,39.8,21,596,0,49.6,12.17,0.00,0.00
15min,AgWx,beryljct,423,15FEB2018:15:00:00,55.6,13.95,44.7,45.0,45.2,45.8,44.5,17,22,13,0.182,3.4,8.4,-2.8,7.607,11.9,336,17,17.9,0.00319,0.00446,45.1,40.0,21,568,0,48.7,12.17,0.00,0.00
15min,AgWx,beryljct,423,15FEB2018:15:15:00,55.3,13.96,44.3,44.6,45.3,46.5,44.5,19,24,16,0.171,5.1,11.7,1.3,7.147,11.4,332,21,17.7,0.00305,0.00426,45.3,40.1,21,539,0,48.7,12.17,0.00,0.00
15min,AgWx,beryljct,423,15FEB2018:15:30:00,55.3,13.99,44.7,44.8,45.4,46.7,44.6,26,42,16,0.413,11.3,23.9,1.2,10.13,11.6,358,35,24.0,0.00287,0.00399,45.5,40.2,21,520,0,49.5,12.17,0.00,0.00
15min,AgWx,beryljct,423,15FEB2018:15:45:00,54.9,13.99,45.3,45.0,44.7,45.5,43.8,38,43,30,0.407,20.7,23.9,15.0,11.82,10.7,39,15,16.0,0.00253,0.00341,45.5,40.4,21,500,0,48.4,12.17,0.00,0.00
15min,AgWx,beryljct,423,15FEB2018:16:00:00,54.6,13.89,43.2,43.1,44.6,45.3,43.1,38,46,31,0.434,20.3,24.4,16.0,18.41,12.1,38,12,19.6,0.00227,0.00321,45.5,40.5,21,413,0,47.9,12.17,0.00,0.00
15min,AgWx,beryljct,423,15FEB2018:16:15:00,52.9,14.06,42.0,42.0,42.2,42.9,41.5,49,50,46,0.443,24.3,25.3,23.4,20.41,18.4,34,10,23.3,0.00178,0.00267,45.6,40.6,21,323,0,43.7,12.17,0.00,0.00
15min,AgWx,beryljct,423,15FEB2018:16:30:00,51.4,14.05,41.7,41.6,41.7,42.2,41.3,49,51,47,0.435,23.9,24.9,22.9,18.68,18.3,39,11,22.6,0.00177,0.00265,45.5,40.7,21,326,0,42.7,12.17,0.00,0.00
15min,AgWx,beryljct,423,15FEB2018:16:45:00,49.9,14.07,40.7,40.8,41.1,41.6,40.5,49,51,48,0.416,23.5,24.7,22.4,19.99,18.5,42,12,23.7,0.00159,0.00245,45.6,40.9,21,273,0,41.9,12.18,0.00,0.00
15min,AgWx,beryljct,423,15FEB2018:17:00:00,48.5,14.08,40.2,40.1,40.2,40.6,39.4,49,51,47,0.426,22.4,23.3,21.2,12.67,18.8,38,12,23.7,0.00145,0.00230,45.3,41.0,21,227,0,40.9,12.18,0.00,0.00
15min,AgWx,beryljct,423,15FEB2018:17:15:00,47.1,14.13,39.4,39.3,39.7,40.3,39.2,49,50,48,0.399,22.0,23.3,21.2,18.04,17.6,41,13,23.9,0.00127,0.00207,45.1,41.1,21,182,0,40.3,12.18,0.00,0.00
15min,AgWx,beryljct,423,15FEB2018:17:30:00,45.8,14.14,38.7,38.5,38.8,39.3,38.3,49,51,48,0.381,21.3,22.4,20.5,17.06,17.0,43,12,23.4,0.00045,0.00050,44.9,41.2,21,138,0,39.3,12.18,0.00,0.00
15min,AgWx,beryljct,423,15FEB2018:17:45:00,44.4,13.48,37.6,37.4,37.9,38.4,37.4,49,50,47,0.373,20.3,21.0,19.5,12.58,16.1,43,13,23.0,0.00040,0.00046,44.5,41.3,21,94,0,38.3,12.18,0.00,0.00
15min,AgWx,beryljct,423,15FEB2018:18:00:00,42.9,13.28,36.0,35.9,36.8,37.4,35.9,50,52,48,0.369,19.7,20.1,19.0,9.54,14.9,46,13,22.3,0.00033,0.00038,44.2,41.5,21,30,0,36.8,12.18,0.00,0.00
15min,AgWx,beryljct,423,15FEB2018:18:15:00,41.4,13.06,35.1,34.9,35.5,36.0,34.8,51,53,50,0.351,19.2,20.1,18.6,14.47,14.4,38,16,20.3,0.00029,0.00033,43.9,41.6,21,9,0,35.5,12.18,0.00,0.00
15min,AgWx,beryljct,423,15FEB2018:18:30:00,39.7,12.99,34.2,34.2,34.4,35.1,33.9,52,53,51,0.347,18.8,19.2,18.3,13.64,12.3,41,15,16.1,0.00025,0.00029,43.5,41.6,21,3,0,35.2,12.18,0.00,0.00
15min,AgWx,beryljct,423,15FEB2018:18:45:00,38.2,12.84,33.3,33.3,33.5,34.2,32.9,54,55,52,0.343,18.5,18.8,18.2,11.49,11.2,39,14,16.8,0.00021,0.00025,43.0,41.7,21,0,0,35.2,12.18,0.00,0.00
15min,AgWx,beryljct,423,15FEB2018:19:00:00,37.0,12.93,33.1,33.0,33.1,33.4,32.8,53,54,52,0.334,17.7,18.3,17.3,10.98,11.6,43,15,15.7,0.00022,0.00026,42.6,41.7,21,0,0,35.4,12.18,0.00,0.00
15min,AgWx,beryljct,423,15FEB2018:19:15:00,35.9,12.9,32.4,32.4,32.6,33.0,32.2,53,54,52,0.331,17.3,17.6,17.1,9.45,10.8,42,16,17.1,0.00021,0.00025,42.0,41.8,21,0,0,35.4,12.18,0.00,0.00
15min,AgWx,beryljct,423,15FEB2018:19:30:00,34.9,12.9,32.2,32.2,31.9,32.3,31.5,54,56,52,0.320,17.3,17.7,16.4,12.21,9.6,38,13,14.2,0.00018,0.00022,41.7,41.9,21,0,0,35.6,12.18,0.00,0.00
15min,AgWx,beryljct,423,15FEB2018:19:45:00,34.1,12.77,31.5,31.3,31.8,32.4,31.3,53,55,52,0.321,16.6,17.0,16.4,10.35,9.5,37,14,13.5,0.00018,0.00022,41.3,41.9,21,0,0,35.3,12.18,0.00,0.00
15min,AgWx,beryljct,423,15FEB2018:20:00:00,33.2,12.87,30.6,30.7,30.8,31.5,30.2,56,58,54,0.328,17.0,17.3,16.5,7.695,7.5,31,13,10.9,0.00013,0.00016,40.8,41.9,21,0,0,35.5,12.18,0.00,0.00
15min,AgWx,beryljct,423,15FEB2018:20:15:00,32.4,12.85,30.0,30.1,30.6,31.0,29.9,56,58,55,0.325,16.8,17.1,16.4,8.22,7.9,27,12,12.3,0.00013,0.00017,40.4,41.9,21,0,0,35.7,12.18,0.00,0.00
15min,AgWx,beryljct,423,15FEB2018:20:30:00,31.6,12.84,29.5,29.7,29.7,30.4,29.3,59,60,57,0.323,17.0,17.7,16.7,6.029,6.6,29,12,9.7,0.00010,0.00013,40.1,42.0,21,0,0,35.4,12.18,0.00,0.00
15min,AgWx,beryljct,423,15FEB2018:20:45:00,30.9,12.83,28.4,28.8,29.5,29.9,28.7,59,61,57,0.329,16.7,17.2,16.4,3.793,5.5,11,13,6.9,0.00007,0.00010,39.8,42.0,21,0,0,35.5,12.18,0.00,0.00
15min,AgWx,beryljct,423,15FEB2018:21:00:00,29.8,12.82,26.4,26.9,27.2,28.7,26.5,67,68,62,0.338,17.6,17.8,17.2,4.077,3.4,335,14,4.8,-0.00002,-0.00001,39.5,41.9,21,0,0,35.6,12.18,0.00,0.00
15min,AgWx,beryljct,423,15FEB2018:21:15:00,28.8,12.81,28.2,28.8,27.0,28.8,26.4,66,69,59,0.317,17.2,18.1,16.2,5.042,4.6,349,21,6.7,0.00002,0.00003,39.2,41.9,21,0,0,35.6,12.18,0.00,0.00
15min,AgWx,beryljct,423,15FEB2018:21:30:00,28.5,12.8,28.6,29.2,29.2,29.5,28.7,57,59,56,0.311,16.0,16.4,15.5,7.322,6.4,30,12,9.4,0.00009,0.00012,38.9,41.9,21,0,0,35.4,12.18,0.00,0.00
15min,AgWx,beryljct,423,15FEB2018:21:45:00,28.3,12.79,28.4,28.9,29.2,29.8,28.6,56,57,54,0.303,15.4,15.9,14.9,5.459,6.7,26,11,9.9,0.00011,0.00014,38.6,41.8,21,0,0,35.5,12.18,0.00,0.00
15min,AgWx,beryljct,423,15FEB2018:22:00:00,28.1,12.64,27.6,28.1,28.6,29.3,27.8,56,58,55,0.300,15.0,15.3,14.5,3.858,4.7,18,10,7.7,0.00005,0.00008,38.4,41.8,21,0,0,35.7,12.18,0.00,0.00
15min,AgWx,beryljct,423,15FEB2018:22:15:00,27.6,12.77,27.2,27.5,28.0,28.3,27.5,56,58,55,0.283,14.5,15.1,13.7,2.828,3.3,8.1,18,5.1,0.00000,0.00002,38.0,41.7,21,0,0,35.8,12.18,0.00,0.00
15min,AgWx,beryljct,423,15FEB2018:22:30:00,27.3,12.75,27.4,27.9,28.1,28.6,27.7,53,56,52,0.276,13.3,14.0,12.7,6.292,5.5,14,11,8.6,0.00009,0.00012,37.8,41.7,21,0,0,35.5,12.18,0.00,0.00
15min,AgWx,beryljct,423,15FEB2018:22:45:00,27.0,12.74,26.0,26.6,27.4,28.0,26.6,54,57,53,0.281,13.1,13.6,12.7,2.302,4.2,8.8,13,7.2,0.00004,0.00007,37.5,41.6,21,0,0,35.5,12.18,0.00,0.00
15min,AgWx,beryljct,423,15FEB2018:23:00:00,26.2,12.73,24.6,25.4,25.9,26.6,25.2,58,60,57,0.280,13.2,13.8,12.6,2.938,2.7,334,16,4.8,-0.00003,-0.00002,37.3,41.5,21,0,0,35.6,12.18,0.00,0.00
15min,AgWx,beryljct,423,15FEB2018:23:15:00,25.4,12.58,24.4,24.7,25.2,25.7,24.5,59,60,58,0.272,12.7,13.5,12.1,3.201,2.5,326,11,4.2,-0.00004,-0.00003,37.1,41.4,21,0,0,35.6,12.18,0.00,0.00
15min,AgWx,beryljct,423,15FEB2018:23:30:00,24.7,12.7,23.9,24.7,24.7,25.0,24.4,61,63,60,0.276,13.3,13.8,12.6,1.228,2.6,335,19,4.6,-0.00004,-0.00003,36.8,41.4,21,0,0,35.5,12.18,0.00,0.00
15min,AgWx,beryljct,423,15FEB2018:23:45:00,23.8,12.69,23.5,23.8,23.7,24.6,23.1,63,64,61,0.274,13.1,13.8,12.7,3.332,1.3,333,21,3.3,-0.00011,-0.00014,36.7,41.3,21,0,0,35.4,12.18,0.00,0.00
15min,AgWx,bigpiney,439,15FEB2018:00:00:00,22.5,12.82,20.7,20.6,21.5,22.1,20.6,72,73,71,0.278,13.8,14.1,13.3,4.757,6.0,236,10,7.7,0.00008,0.00010,30.1,31.3,12,0,0,0.0,.,0.00,0.00
15min,AgWx,bigpiney,439,15FEB2018:00:15:00,22.1,12.81,21.1,20.7,20.2,21.3,19.1,74,75,73,0.279,13.2,14.3,12.0,5.108,5.3,269,17,7.7,0.00006,0.00008,30.0,31.3,12,0,0,0.0,.,0.00,0.00
15min,AgWx,bigpiney,439,15FEB2018:00:30:00,21.5,12.8,20.5,20.7,20.4,21.1,20.0,74,74,73,0.278,13.3,13.9,12.8,5.612,4.7,294,8.6,5.6,0.00006,0.00008,30.0,31.3,12,0,0,0.0,.,0.00,0.00
15min,AgWx,bigpiney,439,15FEB2018:00:45:00,20.9,12.79,20.6,18.9,19.4,20.6,18.3,75,78,73,0.275,12.8,14.3,11.4,1.841,4.1,283,16,6.4,0.00005,0.00006,30.0,31.3,12,0,0,0.0,.,0.00,0.00
15min,AgWx,bigpiney,439,15FEB2018:01:00:00,20.1,12.78,23.2,22.7,18.5,22.7,15.4,77,82,70,0.302,12.4,15.2,8.9,1.162,3.9,248,37,6.4,0.00004,0.00006,30.0,31.3,12,0,0,0.0,.,0.00,0.00
15min,AgWx,bigpiney,439,15FEB2018:01:15:00,19.5,12.77,22.5,21.1,20.5,22.5,19.0,73,77,68,0.297,13.2,14.9,10.5,1.863,3.5,223,12,5.4,0.00005,0.00007,29.9,31.3,12,0,0,0.0,.,0.00,0.00
15min,AgWx,bigpiney,439,15FEB2018:01:30:00,19.2,12.77,18.9,18.4,19.5,21.4,17.1,76,82,73,0.265,13.2,15.0,11.0,3.113,3.0,205,26,5.4,0.00004,0.00005,29.9,31.3,12,0,0,0.0,.,0.00,0.00
15min,AgWx,bigpiney,439,15FEB2018:01:45:00,19.1,12.74,19.9,17.2,18.4,20.2,16.0,77,81,74,0.263,12.5,14.3,9.9,4.297,3.1,144,71,6.6,0.00003,0.00004,29.9,31.3,12,0,0,0.0,.,0.00,0.00
15min,AgWx,bigpiney,439,15FEB2018:02:00:00,19.0,12.73,21.3,21.8,21.1,22.4,17.5,73,81,70,0.279,13.8,14.4,12.4,2.74,2.4,355,53,5.6,0.00003,0.00005,29.9,31.3,12,0,0,0.0,.,0.00,0.00
15min,AgWx,bigpiney,439,15FEB2018:02:15:00,19.1,12.72,18.5,17.9,18.7,21.8,16.8,75,81,70,0.275,12.2,13.4,10.7,7.037,4.5,230,13,7.8,0.00005,0.00007,29.8,31.2,12,0,0,0.0,.,0.00,0.00
15min,AgWx,bigpiney,439,15FEB2018:02:30:00,19.1,12.71,19.5,19.3,18.7,19.3,17.9,79,81,76,0.275,13.3,13.9,12.8,6.73,7.4,245,8.4,9.6,0.00006,0.00007,29.8,31.3,12,0,0,0.0,.,0.00,0.00
15min,AgWx,bigpiney,439,15FEB2018:02:45:00,19.2,12.71,17.8,17.7,18.3,19.2,17.6,78,79,76,0.265,12.5,13.1,12.1,7.256,7.6,245,5.3,9.0,0.00006,0.00007,29.8,31.3,12,0,0,0.0,.,0.00,0.00
15min,AgWx,bigpiney,439,15FEB2018:03:00:00,19.1,12.7,17.0,16.8,17.3,18.2,16.7,78,79,77,0.256,11.8,12.5,11.0,6.116,7.2,252,7.4,9.0,0.00006,0.00007,29.7,31.3,12,0,0,0.0,.,0.00,0.00
15min,AgWx,bigpiney,439,15FEB2018:03:15:00,18.7,12.68,17.0,16.4,16.0,17.0,15.5,80,81,79,0.256,11.0,11.7,10.3,7.19,6.6,248,6.9,7.8,0.00005,0.00006,29.7,31.3,12,0,0,0.0,.,0.00,0.00
15min,AgWx,bigpiney,439,15FEB2018:03:30:00,18.2,12.68,16.5,15.6,15.9,16.5,15.2,80,81,78,0.244,10.7,11.5,9.9,6.686,5.2,256,21,6.9,0.00004,0.00005,29.7,31.3,12,0,0,0.0,.,0.00,0.00
15min,AgWx,bigpiney,439,15FEB2018:03:45:00,17.6,12.67,15.7,15.7,16.0,16.8,15.6,79,80,77,0.244,10.7,11.5,10.2,3.858,5.4,249,16,8.4,0.00004,0.00005,29.6,31.2,12,0,0,0.0,.,0.00,0.00
15min,AgWx,bigpiney,439,15FEB2018:04:00:00,17.1,12.66,16.2,14.9,14.8,16.2,13.7,80,82,78,0.245,9.7,11.0,8.6,2.916,3.5,285,21,6.2,0.00003,0.00004,29.6,31.2,12,0,0,0.0,.,0.00,0.00
15min,AgWx,bigpiney,439,15FEB2018:04:15:00,16.4,12.65,15.0,14.5,14.9,15.4,14.2,76,82,71,0.216,8.6,10.6,6.6,3.464,2.7,285,50,4.4,0.00003,0.00004,29.6,31.2,12,0,0,0.0,.,0.00,0.00
15min,AgWx,bigpiney,439,15FEB2018:04:30:00,15.8,12.65,11.3,12.7,14.3,15.0,12.7,72,74,70,0.191,6.8,7.8,5.0,4.823,5.4,242,9.9,6.8,0.00006,0.00007,29.5,31.2,12,0,0,0.0,.,0.00,0.00
15min,AgWx,bigpiney,439,15FEB2018:04:45:00,15.1,12.63,18.1,17.8,14.8,17.9,10.3,72,78,67,0.227,7.3,9.4,3.2,0.395,3.8,360,61,6.3,0.00005,0.00006,29.5,31.3,12,0,0,0.0,.,0.00,0.00
15min,AgWx,bigpiney,439,15FEB2018:05:00:00,14.9,12.64,19.6,18.9,17.8,19.0,16.8,68,69,65,0.232,8.9,9.6,8.0,2.411,1.6,113,44,2.9,0.00002,0.00004,29.5,31.2,12,0,0,0.0,.,0.00,0.00
15min,AgWx,bigpiney,439,15FEB2018:05:15:00,14.9,12.63,19.9,19.1,18.8,19.5,18.0,66,67,64,0.233,9.2,9.8,8.4,2.521,3.4,8.6,25,4.9,0.00006,0.00008,29.4,31.2,12,0,0,0.0,.,0.00,0.00
15min,AgWx,bigpiney,439,15FEB2018:05:30:00,15.1,12.63,17.9,17.0,18.2,19.4,16.9,66,68,65,0.221,8.8,9.6,7.8,0.745,0.9,347,22,2.6,0.00001,0.00001,29.4,31.1,12,0,0,0.0,.,0.00,0.00
15min,AgWx,bigpiney,439,15FEB2018:05:45:00,15.1,12.62,18.7,17.9,17.6,18.4,16.7,67,69,65,0.224,8.3,8.9,7.8,1.622,0.6,264,16,2.7,-0.00001,-0.00001,29.3,31.2,12,0,0,0.0,.,0.00,0.00
15min,AgWx,bigpiney,439,15FEB2018:06:00:00,14.9,12.62,17.3,16.7,17.7,18.5,16.7,65,67,64,0.215,8.1,8.7,7.4,3.266,2.3,258,18,3.6,0.00004,0.00006,29.3,31.2,12,0,0,0.0,.,0.00,0.00
15min,AgWx,bigpiney,439,15FEB2018:06:15:00,14.7,12.62,15.3,14.9,15.6,16.7,14.9,69,70,67,0.207,7.2,7.8,6.5,3.858,4.5,220,7.4,6.2,0.00006,0.00008,29.3,31.2,12,0,0,0.0,.,0.00,0.00
15min,AgWx,bigpiney,439,15FEB2018:06:30:00,14.2,12.62,10.7,10.6,12.8,15.0,10.6,73,77,69,0.174,5.6,7.6,2.9,3.376,5.6,206,3.1,7.1,0.00005,0.00007,29.2,31.1,12,0,0,0.0,.,0.00,0.00
15min,AgWx,bigpiney,439,15FEB2018:06:45:00,13.2,12.61,11.1,11.0,11.0,11.7,10.1,76,77,71,0.185,4.8,5.7,3.1,2.828,2.9,223,27,7.2,0.00003,0.00004,29.2,31.2,12,0,0,0.0,.,0.00,0.00
15min,AgWx,bigpiney,439,15FEB2018:07:00:00,12.6,12.61,14.4,13.5,12.2,13.5,10.9,74,76,72,0.203,5.4,6.6,3.9,2.543,3.6,204,9.8,6.2,0.00004,0.00005,29.1,31.2,12,0,0,0.0,.,0.00,0.00
15min,AgWx,bigpiney,439,15FEB2018:07:15:00,12.3,12.61,15.9,14.9,14.3,15.6,13.6,71,73,67,0.207,6.5,7.3,5.2,2.324,2.2,219,9.7,5.4,0.00003,0.00004,29.1,31.1,12,2,0,0.0,.,0.00,0.00
15min,AgWx,bigpiney,439,15FEB2018:07:30:00,12.3,12.74,12.4,12.8,13.4,15.3,12.2,70,74,66,0.195,5.6,7.1,3.6,7.519,6.0,227,8.1,8.5,0.00007,0.00008,29.0,31.1,12,9,0,0.0,.,0.00,0.00
15min,AgWx,bigpiney,439,15FEB2018:07:45:00,12.5,13.06,13.2,12.9,12.9,13.5,12.5,74,75,72,0.205,6.2,7.1,5.3,7.3,7.4,235,3.2,8.2,0.00001,0.00011,29.0,31.1,12,31,0,0.0,.,0.00,0.00